STARLINK-35385 (65906 NORAD) Tracking and Keplerian Element Data

This shows tracking and keplerian element data for the satellite.

Feedback or suggestion? Click here.




ElementValue
Catalog65906
NameSTARLINK-35385
Epoch Orbit1266
Epoch Day354.05758139
Epoch Year2025
RAAN21.1255
Inclination53.1603
Eccentricity0.0001958
Argument of Perigee77.8692
Mean Anonmoly282.2528
Mean Motion15.30207675
Decay Rate0.00015404
L11 65906U 25224AA 25354.05758139 .00015404 00000+0 53102-3 0 9995
L22 65906 53.1603 21.1255 0001958 77.8692 282.2528 15.30207675 12664



Live tracking and technical data element details for STARLINK-35385 (NORAD 65906). STARLINK-35385 can be tracked NOW for your location showing map with azimuth and elevation plus other details from your city location.







IsCatalogInMostPopularTable: catalog: 65906, numindb: 3
Update: records affected: 1



GetName: 65906 STARLINK-35385

Hit Count: updated at: Sun, 08 Feb 2026 17:49:36 GMT